Weather reports worldwide

Advertisment
Charleville, France (7075): temperature & dewpoint: 15.02.2020 03:00:00 - 21.02.2020 03:00:00 (CET)Charleville, France (7075): temperature 5cm: 15.02.2020 03:00:00 - 21.02.2020 03:00:00 (CET)Charleville, France (7075): temperature -20cm & temperature -100cm: 15.02.2020 03:00:00 - 21.02.2020 03:00:00 (CET)Charleville, France (7075): wind speed & gusts: 15.02.2020 03:00:00 - 21.02.2020 03:00:00 (CET)Charleville, France (7075): wind direction: 15.02.2020 03:00:00 - 21.02.2020 03:00:00 (CET)Charleville, France (7075): reduced air pressure: 15.02.2020 03:00:00 - 21.02.2020 03:00:00 (CET)Charleville, France (7075): visibility: 15.02.2020 03:00:00 - 21.02.2020 03:00:00 (CET)Charleville, France (7075): sunshine duration: 15.02.2020 03:00:00 - 21.02.2020 03:00:00 (CET)Charleville, France (7075): precipitation: 15.02.2020 03:00:00 - 21.02.2020 03:00:00 (CET)
Date & Time tt [°C] td [°C] tt 5cm [°C] tt -20cm [°C] tt -100cm [°C] ff [km/h] ff [kn] fx [km/h] fx [kn] dd ppp [hPa] vv [km] sd [min] rr [mm]
21.02.2020 03:00:00 1,9 0,6 -0,1 7,2 8,1 9 5 13 7 WNW 1026,6 20 0 0,0
21.02.2020 02:00:00 2,8 0,8 0,7 7,3 8,1 9 5 16 9 W 1025,8 20 0 0,0
21.02.2020 01:00:00 3,8 1,2 2,1 7,4 8,1 9 5 24 13 W 1024,5 20 0 0,0
21.02.2020 00:00:00 4,6 1,8 3,3 7,4 8,1 15 8 38 21 W 1023,5 20 0 0,0
20.02.2020 23:00:00 5,6 2,6 4,9 7,5 8,1 24 13 43 23 W 1021,8 20 0 0,0
20.02.2020 22:00:00 6,0 2,8 4,5 7,5 8,1 26 14 60 32 W 1019,8 20 0 0,0
20.02.2020 21:00:00 6,4 2,7 4,7 7,5 8,1 29 16 72 39 WNW 1018,2 20 0 1,2
20.02.2020 20:00:00 8,2 6,8 7,2 7,4 8,1 27 14 50 27 SW 1015,6 5 0 2,8
20.02.2020 19:00:00 8,1 6,2 7,1 7,4 8,1 17 9 41 22 SSW 1014,9 6 0 1,0
20.02.2020 18:00:00 8,9 5,5 8,4 7,4 8,1 18 10 44 24 SSW 1014,9 17 0 0,0
20.02.2020 17:00:00 8,8 5,2 8,0 7,4 8,2 21 12 44 24 SSW 1015,4 20 0 0,0
20.02.2020 16:00:00 8,7 5,6 8,5 7,2 8,1 18 10 48 26 S 1016,1 17 0 0,0
20.02.2020 15:00:00 8,8 5,5 8,7 7,2 8,1 20 11 42 23 SSW 1016,7 20 0 0,0
20.02.2020 14:00:00 8,7 5,4 8,9 7,2 8,1 16 9 39 21 S 1017,4 20 0 0,0
20.02.2020 13:00:00 8,2 5,8 8,4 7,2 8,1 20 11 33 18 S 1018,3 20 0 0,0
20.02.2020 12:00:00 8,2 5,3 8,5 7,2 8,1 16 9 36 19 SSW 1019,4 20 0 0,0
20.02.2020 11:00:00 7,9 5,4 7,7 7,1 8,1 15 8 32 17 SSW 1019,5 20 0 0,0
20.02.2020 10:00:00 7,5 5,5 7,2 7,1 8,1 14 8 30 16 SSW 1019,8 20 0 0,0
20.02.2020 09:00:00 7,1 5,4 6,9 7,1 8,1 14 8 30 16 SSW 1020,2 20 0 0,0
20.02.2020 08:00:00 7,0 5,6 6,3 7,2 8,1 15 8 30 16 SSW 1019,9 18 0 0,0
20.02.2020 07:00:00 6,7 5,3 6,2 7,2 8,1 11 6 26 14 SSW 1020,0 18 0 0,0
20.02.2020 06:00:00 6,8 5,4 6,2 7,2 8,1 14 7 30 16 SSW 1020,2 18 0 0,0
20.02.2020 05:00:00 6,9 5,7 6,4 7,2 8,1 13 7 26 14 SSW 1020,4 17 0 0,0
20.02.2020 04:00:00 6,9 5,7 6,4 7,2 8,1 14 7 28 15 SSW 1020,8 16 0 0,0
20.02.2020 03:00:00 6,8 5,7 6,4 7,2 8,1 17 9 32 17 SSW 1021,4 15 0 0,0
20.02.2020 02:00:00 6,8 5,7 6,3 7,2 8,1 16 9 36 19 SSW 1021,8 18 0 0,0
20.02.2020 01:00:00 6,7 5,8 5,9 7,3 8,1 14 8 31 17 SSW 1022,4 16 0 0,0
20.02.2020 00:00:00 6,2 5,5 5,5 7,3 8,1 15 8 27 15 SSW 1022,7 17 0 0,0
19.02.2020 23:00:00 5,9 4,9 5,2 7,3 8,1 10 5 20 11 SSW 1023,6 19 0 0,0
19.02.2020 22:00:00 5,7 4,3 4,8 7,4 8,1 8 4 18 10 SSW 1024,0 8 0 0,4
19.02.2020 21:00:00 5,4 4,0 4,8 7,4 8,1 4 2 14 8 SSE 1024,3 15 0 0,2
19.02.2020 20:00:00 5,7 4,0 5,0 7,4 8,1 9 5 23 12 SW 1024,6 20 0 0,0
19.02.2020 19:00:00 6,0 3,5 5,2 7,3 8,1 8 4 26 14 WSW 1024,9 19 0 0,0
19.02.2020 18:00:00 7,0 2,3 6,4 7,3 8,1 16 9 32 18 WSW 1024,5 20 11 0,0
19.02.2020 17:00:00 7,5 1,3 7,6 7,2 8,1 9 5 25 14 SW 1024,4 20 0 0,0
19.02.2020 16:00:00 7,5 0,7 8,2 7,2 8,1 16 9 36 19 W 1024,7 20 16 0,0
19.02.2020 15:00:00 8,0 0,7 8,6 7,1 8,1 20 11 41 22 W 1024,7 20 40 0,0
19.02.2020 14:00:00 7,4 0,8 8,6 7,0 8,1 18 10 43 23 W 1024,8 20 33 0,0
19.02.2020 13:00:00 7,6 1,2 8,4 7,0 8,0 23 12 37 20 WNW 1024,7 20 43 0,0
19.02.2020 12:00:00 6,8 1,7 7,6 7,0 8,0 21 11 34 19 WNW 1024,8 20 44 0,0
19.02.2020 11:00:00 5,9 1,8 5,8 7,1 8,0 21 12 39 21 WNW 1024,2 20 14 0,0
19.02.2020 10:00:00 4,9 2,1 4,0 7,1 8,0 21 11 35 19 WNW 1023,8 20 0 0,0
19.02.2020 09:00:00 4,8 2,0 3,2 7,2 8,0 21 11 33 18 W 1022,9 20 11 0,0
19.02.2020 08:00:00 4,4 2,4 3,4 7,2 8,0 16 9 39 21 W 1021,6 20 0 0,0
19.02.2020 07:00:00 4,7 2,7 3,3 7,3 8,0 17 9 44 24 W 1020,5 20 0 0,2
19.02.2020 06:00:00 5,4 3,1 4,4 7,3 8,0 26 14 44 24 W 1019,8 20 0 0,0
19.02.2020 05:00:00 5,2 3,5 4,1 7,4 8,0 19 10 32 18 W 1018,8 12 0 0,0
19.02.2020 04:00:00 4,6 3,1 3,4 7,5 8,0 13 7 26 14 W 1018,7 20 0 0,0
19.02.2020 03:00:00 4,1 2,9 3,4 7,5 8,0 11 6 59 32 W 1018,7 20 0 2,4
19.02.2020 02:00:00 6,8 4,6 5,7 7,5 8,0 32 17 73 39 SW 1018,2 9 0 2,0
19.02.2020 01:00:00 6,9 4,7 5,7 7,6 8,0 20 11 36 20 SSW 1019,1 13 0 0,4
19.02.2020 00:00:00 6,8 4,8 5,7 7,6 8,0 17 9 33 18 SSW 1020,3 12 0 0,2
18.02.2020 23:00:00 6,9 4,2 5,7 7,6 8,0 15 8 30 16 SSW 1021,3 20 0 0,2
18.02.2020 22:00:00 7,0 3,6 6,0 7,7 8,0 16 8 31 17 SSW 1022,4 20 0 0,0
18.02.2020 21:00:00 6,7 3,5 5,1 7,7 8,0 12 7 24 13 SSW 1023,2 20 0 0,0
18.02.2020 20:00:00 5,8 4,1 4,7 7,7 8,0 9 5 27 14 SSW 1024,0 20 0 0,2
18.02.2020 19:00:00 6,3 4,0 4,9 7,7 8,0 7 4 34 18 SW 1024,5 17 0 0,2
18.02.2020 18:00:00 7,5 3,9 6,2 7,7 8,0 13 7 36 19 WSW 1024,6 8 0 0,0
18.02.2020 17:00:00 7,9 3,5 6,8 7,6 8,0 16 9 37 20 SW 1024,9 20 0 0,0
18.02.2020 16:00:00 8,1 3,4 7,5 7,5 8,0 15 8 36 19 WSW 1025,3 19 0 0,0
18.02.2020 15:00:00 8,4 3,2 8,8 7,5 8,0 19 10 39 21 SW 1025,6 20 13 0,0
18.02.2020 14:00:00 8,8 3,8 9,2 7,5 8,0 21 11 37 20 SW 1025,8 20 12 0,0
18.02.2020 13:00:00 7,9 3,0 8,9 7,4 8,0 21 12 39 21 SW 1026,3 20 13 0,0
18.02.2020 12:00:00 7,2 3,2 8,5 7,5 8,0 19 10 36 20 WSW 1027,1 20 17 0,0
18.02.2020 11:00:00 6,1 2,9 6,8 7,5 7,9 18 10 40 21 WSW 1027,3 20 26 0,0
18.02.2020 10:00:00 5,4 2,9 5,4 7,6 8,0 16 9 35 19 WSW 1027,3 19 21 0,0
18.02.2020 09:00:00 4,6 2,5 3,9 7,6 8,0 14 8 33 18 SW 1027,1 20 12 0,0
18.02.2020 08:00:00 4,3 2,3 3,7 7,7 7,9 18 10 37 20 SW 1026,6 20 0 0,0
18.02.2020 07:00:00 4,6 2,3 4,0 7,7 7,9 17 9 33 18 SW 1026,0 20 0 0,0
18.02.2020 06:00:00 5,2 2,4 4,9 7,8 8,0 17 9 35 19 SW 1025,8 20 0 0,0
18.02.2020 05:00:00 5,5 2,7 5,4 7,9 7,9 18 10 32 17 SW 1025,3 20 0 0,0
18.02.2020 04:00:00 5,7 2,7 5,5 7,9 7,9 16 8 36 19 SW 1025,0 20 0 0,0
18.02.2020 03:00:00 6,0 2,6 5,8 8,0 7,9 17 9 34 18 SW 1024,7 20 0 0,0
18.02.2020 02:00:00 6,3 2,9 6,1 8,0 7,9 19 10 40 21 WSW 1024,2 20 0 0,0
18.02.2020 01:00:00 6,6 3,2 6,2 8,1 7,9 18 10 39 21 SW 1023,4 20 0 0,0
18.02.2020 00:00:00 6,7 3,1 5,9 8,2 7,9 18 10 32 18 SW 1022,8 20 0 0,0
17.02.2020 23:00:00 6,6 3,0 5,5 8,2 7,9 15 8 35 19 WSW 1022,2 20 0 0,0
17.02.2020 22:00:00 7,3 3,0 6,3 8,3 7,9 18 10 37 20 WSW 1021,4 20 0 0,0
17.02.2020 21:00:00 7,9 3,2 6,8 8,4 7,9 19 10 36 19 W 1020,4 20 0 0,0
17.02.2020 20:00:00 8,0 3,3 7,0 8,4 7,9 22 12 55 30 W 1019,7 20 0 0,0
17.02.2020 19:00:00 9,3 2,6 8,2 8,4 7,9 16 9 34 19 SW 1018,3 20 0 0,0
17.02.2020 18:00:00 9,4 3,4 7,9 8,4 7,9 14 8 36 20 WSW 1017,5 20 33 0,0
17.02.2020 17:00:00 10,1 4,9 8,6 8,3 7,9 14 7 34 19 SW 1016,7 20 31 0,2
17.02.2020 16:00:00 9,1 4,7 7,5 8,2 7,9 14 8 40 22 WSW 1016,8 20 32 0,2
17.02.2020 15:00:00 8,3 5,4 8,0 8,1 7,9 25 13 68 37 W 1016,7 11 34 0,2
17.02.2020 14:00:00 10,7 4,8 11,1 8,1 7,9 25 13 53 29 SW 1016,1 20 28 0,0
17.02.2020 13:00:00 10,5 5,0 12,0 8,0 7,9 26 14 48 26 SW 1016,4 20 44 0,0
17.02.2020 12:00:00 9,4 6,1 8,6 8,1 7,9 14 8 33 18 SW 1016,7 20 15 0,0
17.02.2020 11:00:00 8,1 4,9 8,2 8,1 7,9 16 9 31 17 SSW 1016,6 20 0 0,0
17.02.2020 10:00:00 7,9 4,8 7,6 8,1 7,9 16 9 30 16 SSW 1016,6 20 0 0,0
17.02.2020 09:00:00 7,6 5,7 6,9 8,2 7,9 15 8 29 15 SSW 1016,3 20 0 0,0
17.02.2020 08:00:00 7,5 5,8 7,1 8,2 7,9 11 6 26 14 SSW 1016,2 20 0 0,0
17.02.2020 07:00:00 7,8 5,8 7,4 8,3 7,9 9 5 26 14 WSW 1015,9 20 0 0,0
17.02.2020 06:00:00 7,9 6,0 7,4 8,4 7,9 14 8 29 15 SSW 1016,4 20 0 0,0
17.02.2020 05:00:00 8,0 5,8 7,4 8,4 7,8 11 6 29 15 SW 1016,2 20 0 0,0
17.02.2020 04:00:00 8,2 5,7 7,6 8,5 7,9 14 8 39 21 SW 1015,5 20 0 0,0
17.02.2020 03:00:00 8,3 5,9 7,7 8,5 7,9 17 9 35 19 SW 1015,4 20 0 0,0
17.02.2020 02:00:00 8,3 5,8 7,1 8,5 7,8 19 10 49 26 SW 1014,5 20 0 0,0
17.02.2020 01:00:00 8,2 5,8 6,8 8,5 7,9 21 11 37 20 SW 1013,5 20 0 0,0
17.02.2020 00:00:00 7,7 5,7 6,8 8,5 7,9 17 9 44 24 WSW 1012,8 20 0 1,0
16.02.2020 23:00:00 7,8 6,3 7,4 8,5 7,8 26 14 47 25 W 1012,3 3,4 0 1,6
16.02.2020 22:00:00 8,4 7,5 8,2 8,4 7,8 18 10 53 29 W 1011,0 4,3 0 3,2
16.02.2020 21:00:00 8,8 7,6 8,4 8,4 7,9 29 16 61 33 WNW 1009,8 3,6 0 4,9
16.02.2020 20:00:00 15,5 8,5 14,7 8,3 7,8 28 15 59 32 SSW 1006,2 20 0 0,0
16.02.2020 19:00:00 15,6 8,6 13,8 8,2 7,8 31 17 67 36 S 1005,9 20 0 0,0
16.02.2020 18:00:00 16,2 8,7 15,4 8,1 7,9 26 14 56 31 SSW 1005,9 20 0 0,0
16.02.2020 17:00:00 16,3 8,8 15,7 8,0 7,8 24 13 59 32 SSW 1006,2 20 37 0,0
16.02.2020 16:00:00 16,0 9,2 15,5 7,9 7,8 24 13 62 34 SSW 1006,3 20 0 0,0
16.02.2020 15:00:00 15,8 8,8 15,8 7,8 7,9 30 16 73 39 SSW 1006,5 20 41 0,0
16.02.2020 14:00:00 16,3 9,9 15,6 7,7 7,8 25 14 63 34 SSW 1006,9 20 22 0,0
16.02.2020 13:00:00 15,0 9,1 13,8 7,6 7,8 22 12 53 29 SSW 1008,2 20 7 0,0
16.02.2020 12:00:00 13,9 7,4 14,1 7,6 7,8 31 17 64 35 SSW 1009,2 20 41 0,0
16.02.2020 11:00:00 13,4 7,2 12,0 7,5 7,8 30 16 59 32 SSW 1009,3 20 4 0,2
16.02.2020 10:00:00 12,0 7,3 9,7 7,5 7,8 25 14 57 31 S 1010,0 20 0 0,0
16.02.2020 09:00:00 11,3 7,8 9,4 7,5 7,8 23 12 50 27 S 1010,7 20 0 0,0
16.02.2020 08:00:00 10,7 8,5 9,3 7,4 7,8 19 11 46 25 S 1011,0 17 0 0,6
16.02.2020 07:00:00 10,4 8,8 9,3 7,4 7,8 21 11 50 27 S 1011,8 10 0 2,3
16.02.2020 06:00:00 10,3 8,7 8,9 7,4 7,8 23 13 43 23 S 1012,0 8 0 2,6
16.02.2020 05:00:00 9,9 8,2 8,8 7,4 7,8 18 10 41 22 S 1012,2 7 0 2,4
16.02.2020 04:00:00 10,4 7,6 8,8 7,4 7,8 19 10 39 21 SSW 1012,8 12 0 0,8
16.02.2020 03:00:00 11,4 6,7 10,6 7,4 7,8 19 10 47 25 S 1013,1 20 0 0,0
16.02.2020 02:00:00 11,1 6,4 10,3 7,4 7,9 18 10 38 20 S 1013,5 20 0 0,0
16.02.2020 01:00:00 11,0 6,5 10,4 7,4 7,8 21 12 41 22 S 1014,1 20 0 0,0
16.02.2020 00:00:00 10,8 6,7 9,9 7,3 7,8 18 10 35 19 S 1014,3 20 0 0,0
15.02.2020 23:00:00 10,4 6,7 9,4 7,3 7,8 19 10 35 19 S 1015,5 20 0 0,0
15.02.2020 22:00:00 10,1 6,4 8,2 7,3 7,8 16 9 36 19 S 1016,1 20 0 0,0
15.02.2020 21:00:00 10,8 5,5 10,1 7,3 7,8 17 9 41 22 S 1016,4 20 0 0,0
15.02.2020 20:00:00 10,7 5,7 9,8 7,2 7,8 21 11 43 23 S 1016,5 20 0 0,0
15.02.2020 19:00:00 10,4 6,2 8,9 7,2 7,8 18 10 33 18 S 1016,8 20 0 0,0
15.02.2020 18:00:00 9,8 6,3 8,7 7,1 7,8 14 8 29 16 SE 1016,7 20 0 0,0
15.02.2020 17:00:00 10,7 6,3 10,5 7,0 7,8 13 7 35 19 SSE 1017,3 19 7 0,0
15.02.2020 16:00:00 11,3 6,8 11,7 6,9 7,8 17 9 33 18 S 1017,9 20 3 0,0
15.02.2020 15:00:00 11,5 7,0 12,0 6,8 7,8 19 10 40 22 SSW 1018,7 19 1 0,0
15.02.2020 14:00:00 11,2 6,5 11,8 6,6 7,8 24 13 44 24 SSW 1019,2 19 16 0,0
15.02.2020 13:00:00 10,8 6,5 11,8 6,6 7,9 21 11 44 24 SSW 1020,0 16 35 0,0
15.02.2020 12:00:00 10,9 6,4 12,8 6,5 7,9 21 12 37 20 S 1020,9 19 60 0,0
15.02.2020 11:00:00 9,9 6,1 10,6 6,6 7,9 19 10 36 20 S 1021,4 19 58 0,0
15.02.2020 10:00:00 8,2 5,3 6,2 6,5 7,8 9 5 20 11 SSE 1022,2 19 13 0,0
15.02.2020 09:00:00 6,5 4,5 6,0 6,6 7,9 11 6 22 12 SSE 1022,5 18 0 0,0
15.02.2020 08:00:00 6,2 4,5 3,4 6,6 7,8 10 6 19 10 S 1022,9 19 0 0,0
15.02.2020 07:00:00 5,1 3,9 3,2 6,7 7,9 8 4 20 11 SE 1022,6 19 0 0,0
15.02.2020 06:00:00 6,2 4,2 5,3 6,7 7,9 10 6 22 12 SE 1022,6 20 0 0,0
15.02.2020 05:00:00 6,4 4,6 5,4 6,7 7,8 11 6 20 11 ESE 1023,1 20 0 0,0
15.02.2020 04:00:00 6,4 4,4 5,5 6,8 7,8 13 7 22 12 SE 1023,3 20 0 0,0
15.02.2020 03:00:00 6,6 4,9 3,5 6,8 7,9 8 5 16 9 SE 1023,9 20 0 0,0

tt = temperature
td = dewpoint
tt 5cm = temperature 5cm
tt -20cm = temperature -20cm
tt -100cm = temperature -100cm
ff = wind speed
fx = gusts
dd = wind direction
ppp = reduced air pressure
vv = visibility
sd = sunshine duration
rr = precipitation

Next stations